Location: Unspecified
(0.0000°N, 0.0000°E)
Time: 05:42:09
(UTC+00:00)

Vanguard 2 Rocket - Visible Passes

Search period start: 23 September 2017 00:00
Search period end: 03 October 2017 00:00
Orbit: 554 x 3328 km, 32.9° (Epoch: 22 September)

Date Brightness Start Highest point End Pass type
(mag) Time Alt. Az. Time Alt. Az. Time Alt. Az.
23 Sep 9.7 02:32:29 10° E 02:32:29 10° E 02:32:31 10° E visible
23 Sep 6.8 04:38:21 30° W 04:41:00 51° SW 04:45:24 10° SE visible
23 Sep 10.5 18:04:35 10° W 18:20:04 41° NNW 18:38:31 10° NE visible
23 Sep 10.7 20:29:29 10° WNW 20:42:40 20° NNW 20:53:08 12° NNE visible
23 Sep 10.9 22:57:47 10° NNW 22:58:56 11° NNW 22:58:56 11° NNW visible
24 Sep 7.1 03:42:46 66° ESE 03:42:46 66° ESE 03:46:59 10° ESE visible
24 Sep 10.8 19:24:43 10° WNW 19:39:09 25° NNW 19:53:51 10° NNE visible
24 Sep 10.7 21:53:10 10° NW 22:02:37 16° N 22:02:37 16° N visible
25 Sep 9.3 02:47:09 16° ESE 02:47:09 16° ESE 02:48:08 10° ESE visible
25 Sep 7.8 04:53:00 19° WSW 04:55:24 24° SW 04:59:16 10° SSE visible
25 Sep 10.7 18:21:23 10° W 18:35:53 31° NNW 18:52:37 10° NNE visible
25 Sep 10.6 20:47:55 10° NW 20:59:46 18° N 21:06:16 15° NNE visible
26 Sep 7.4 03:57:20 46° SSW 03:57:20 46° SSW 04:01:28 10° SE visible
26 Sep 10.7 19:42:57 10° NW 19:55:57 20° NNW 20:08:48 10° NNE visible
26 Sep 10.7 22:09:08 10° NNW 22:15:39 16° NNW 22:15:39 16° NNW visible
27 Sep 9.0 03:01:36 21° SE 03:01:36 21° SE 03:03:06 10° SE visible
27 Sep 8.6 05:07:44 10° WSW 05:09:50 12° SW 05:11:41 10° SSW visible
27 Sep 10.8 18:38:57 10° WNW 18:52:17 24° NNW 19:07:03 10° NNE visible
27 Sep 10.6 21:05:14 10° NW 21:17:04 18° N 21:19:13 17° N visible
28 Sep 8.2 04:11:39 26° SSW 04:11:39 26° SSW 04:15:21 10° SSE visible
28 Sep 10.7 20:01:00 10° NW 20:13:12 18° N 20:22:47 13° NNE visible
28 Sep 10.8 22:23:50 10° NNW 22:28:34 16° NNW 22:28:34 16° NNW visible
29 Sep 8.9 03:15:48 21° SSE 03:15:48 21° SSE 03:17:32 10° SE visible
29 Sep 10.8 18:56:59 10° NW 19:09:15 20° N 19:22:16 10° NNE visible
29 Sep 10.6 21:21:01 10° NNW 21:32:07 20° N 21:32:07 20° N visible
30 Sep 8.8 04:25:45 14° SW 04:25:45 14° SW 04:28:14 10° S visible
30 Sep 10.8 17:53:44 10° WNW 18:05:37 22° NNW 18:19:41 10° NNE visible
30 Sep 10.5 20:17:54 10° NW 20:30:34 19° N 20:35:40 17° NNE visible
30 Sep 10.8 22:37:57 10° NW 22:41:26 16° NNW 22:41:26 16° NNW visible
01 Oct 9.0 03:29:48 18° S 03:29:48 18° S 03:31:26 10° SSE visible
01 Oct 10.7 19:14:40 10° NW 19:26:35 19° N 19:38:45 10° NE visible
01 Oct 10.5 21:35:42 10° NNW 21:45:00 23° N 21:45:00 23° N visible
02 Oct 10.8 18:11:38 10° NW 18:22:40 19° N 18:35:08 10° NE visible
02 Oct 10.4 20:33:26 10° NNW 20:47:39 22° NNE 20:48:33 22° NNE visible
02 Oct 10.9 22:51:53 10° NW 22:54:21 15° NW 22:54:21 15° NW visible
